Weather History for Orange, MA

Change the Weather History Date:

Saturday, November 2, 2013

  Actual Average Record
Temperature  
Mean Temperature 49 °F -  
Max Temperature 63 °F 50 °F 68 °F (2001)
Min Temperature 36 °F 30 °F 21 °F (2002)
Degree Days  
Heating Degree Days 16    
Moisture  
Dew Point 40 °F    
Average Humidity 89    
Maximum Humidity 100    
Minimum Humidity 43    
Precipitation  
Precipitation 0.01 in - - ()
Sea Level Pressure  
Sea Level Pressure 29.69 in    
Wind  
Wind Speed 1 mph (NNE)    
Max Wind Speed 12 mph    
Max Gust Speed -    
Visibility 5 miles    
Events Fog , Rain    
Averages and records for this station are not official NWS values.
T = Trace of Precipitation, MM = Missing Value Source: NWS Daily Summary

Daily Weather History Graph

Daily Weather History Graph

Search for Another Location

Airport:

Trip Planner

Search our weather history database for the weather conditions in past years. The results will help you decide how hot, cold, wet, or windy it might be!

Date:

Astronomy

Nov. 02, 2013 Rise Set
Actual Time 7:24 AM EDT 5:40 PM EDT
Civil Twilight 6:54 AM EDT 6:09 PM EDT
Nautical Twilight 6:21 AM EDT 6:43 PM EDT
Astronomical Twilight 5:48 AM EDT 7:15 PM EDT
Moon 6:17 AM EDT (11/2) 5:10 PM EDT (11/2)
Length of Visible Light 11h 14m
Length of Day
10h 16m
Waning Crescent, 1% of the Moon is Illuminated
Nov 2
Waning Crescent
Nov 3
New
Nov 10
First Quarter
Nov 17
Full
Nov 25
Last Quarter

Hourly Weather History & Observations

Time (EDT) Temp. Windchill Dew Point Humidity Pressure Visibility Wind Dir Wind Speed Gust Speed Precip Events Conditions
12:52 AM 48.0 °F - 42.1 °F 80% 29.67 in 10.0 mi Calm Calm - N/A   Clear
1:52 AM 42.1 °F - 39.0 °F 89% 29.66 in 10.0 mi Calm Calm - N/A   Clear
2:52 AM 41.0 °F - 39.0 °F 93% 29.66 in 9.0 mi Calm Calm - N/A   Clear
3:19 AM 39.0 °F - 37.9 °F 96% 29.65 in 1.5 mi Calm Calm - N/A   Clear
3:22 AM 39.0 °F 36.8 °F 37.9 °F 96% 29.65 in 1.0 mi North 3.5 mph - N/A   Mist
3:30 AM 37.9 °F - 37.0 °F 97% 29.66 in 0.5 mi Calm Calm - N/A Fog Fog
3:39 AM 37.9 °F - 37.0 °F 97% 29.65 in 1.2 mi Calm Calm - N/A   Partly Cloudy
3:42 AM 37.9 °F - 37.0 °F 97% 29.66 in 0.8 mi Calm Calm - N/A   Mist
3:52 AM 37.0 °F - 37.0 °F 100% 29.67 in 0.5 mi Calm Calm - N/A Fog Fog
4:52 AM 37.0 °F - 36.0 °F 96% 29.67 in 1.0 mi Calm Calm - N/A   Mist
4:55 AM 37.0 °F - 36.0 °F 96% 29.66 in 2.5 mi Calm Calm - N/A   Scattered Clouds
5:02 AM 37.0 °F - 36.0 °F 96% 29.66 in 4.0 mi Calm Calm - N/A   Partly Cloudy
5:05 AM 36.0 °F - 35.1 °F 97% 29.66 in 1.8 mi Calm Calm - N/A   Scattered Clouds
5:08 AM 36.0 °F - 35.1 °F 97% 29.66 in 1.0 mi Calm Calm - N/A   Mist
5:15 AM 36.0 °F - 36.0 °F 100% 29.67 in 0.5 mi Calm Calm - N/A Fog Fog
5:52 AM 36.0 °F - 35.1 °F 97% 29.69 in 0.8 mi Calm Calm - N/A   Mist
5:59 AM 36.0 °F - 35.1 °F 97% 29.68 in 0.8 mi Calm Calm - N/A   Mostly Cloudy
6:34 AM 37.0 °F - 37.0 °F 100% 29.68 in 1.2 mi Calm Calm - N/A   Overcast
6:40 AM 37.0 °F - 37.0 °F 100% 29.67 in 2.0 mi Calm Calm - N/A   Overcast
6:48 AM 37.4 °F - 37.4 °F 100% 29.67 in 5.0 mi Calm Calm - N/A   Overcast
6:52 AM 37.9 °F - 37.0 °F 97% 29.68 in 6.0 mi Calm Calm - N/A   Overcast
7:52 AM 37.9 °F - 37.0 °F 97% 29.70 in 8.0 mi Calm Calm - N/A   Mostly Cloudy
8:52 AM 42.1 °F - 41.0 °F 96% 29.71 in 10.0 mi Calm Calm - N/A   Overcast
9:52 AM 46.0 °F - 43.0 °F 89% 29.70 in 10.0 mi Calm Calm - N/A   Overcast
10:52 AM 53.1 °F - 44.1 °F 71% 29.68 in 10.0 mi Calm Calm - N/A   Mostly Cloudy
11:52 AM 57.9 °F - 43.0 °F 58% 29.65 in 10.0 mi Calm Calm - N/A   Clear
12:52 PM 60.1 °F - 42.1 °F 51% 29.64 in 10.0 mi SSE 4.6 mph - N/A   Clear
1:52 PM 62.1 °F - 39.0 °F 43% 29.62 in 10.0 mi SSE 5.8 mph - N/A   Clear
2:52 PM 62.1 °F - 41.0 °F 46% 29.61 in 10.0 mi SE 4.6 mph - N/A   Overcast
3:52 PM 62.1 °F - 41.0 °F 46% 29.60 in 10.0 mi South 6.9 mph - N/A   Partly Cloudy
4:52 PM 57.9 °F - 45.0 °F 62% 29.62 in 10.0 mi Calm Calm - N/A   Mostly Cloudy
5:52 PM 54.0 °F - 48.0 °F 80% 29.62 in 9.0 mi Calm Calm - 0.01 in Rain Light Rain
6:52 PM 53.1 °F - 46.0 °F 77% 29.68 in 10.0 mi WNW 11.5 mph - 0.00 in Rain Light Rain
7:52 PM 51.1 °F - 46.9 °F 86% 29.70 in 10.0 mi ENE 4.6 mph - 0.00 in   Mostly Cloudy
8:52 PM 48.0 °F - 46.0 °F 93% 29.72 in 10.0 mi Calm Calm - N/A   Overcast
9:52 PM 46.0 °F - 44.1 °F 93% 29.74 in 2.5 mi Calm Calm - N/A   Mostly Cloudy
9:55 PM 46.0 °F - 44.1 °F 93% 29.73 in 1.2 mi Calm Calm - N/A   Mostly Cloudy
10:06 PM 45.0 °F 43.5 °F 44.1 °F 97% 29.74 in 2.5 mi NE 3.5 mph - N/A   Partly Cloudy
10:17 PM 45.0 °F - 44.1 °F 97% 29.74 in 1.2 mi Calm Calm - N/A   Partly Cloudy
10:24 PM 44.1 °F - 44.1 °F 100% 29.74 in 2.0 mi Calm Calm - N/A   Clear
10:28 PM 43.0 °F 41.3 °F 43.0 °F 100% 29.74 in 1.2 mi NW 3.5 mph - N/A   Clear
10:34 PM 43.0 °F 40.3 °F 42.1 °F 97% 29.74 in 0.8 mi NNW 4.6 mph - N/A   Clear
10:45 PM 42.1 °F 40.2 °F 41.0 °F 96% 29.74 in 0.2 mi ENE 3.5 mph - N/A Fog Fog
10:52 PM 43.0 °F 40.3 °F 42.1 °F 97% 29.75 in 0.2 mi ENE 4.6 mph - N/A Fog Fog
11:08 PM 43.0 °F - 43.0 °F 100% 29.75 in 0.8 mi Calm Calm - N/A   Mostly Cloudy
11:26 PM 43.0 °F 41.3 °F 42.1 °F 97% 29.76 in 1.2 mi NNW 3.5 mph - N/A   Mostly Cloudy
11:32 PM 43.0 °F 40.3 °F 43.0 °F 100% 29.76 in 2.0 mi NNW 4.6 mph - N/A   Overcast
11:38 PM 44.1 °F 41.5 °F 43.0 °F 96% 29.76 in 3.0 mi North 4.6 mph - N/A   Overcast
11:52 PM 44.1 °F 40.8 °F 43.0 °F 96% 29.77 in 10.0 mi NNW 5.8 mph - N/A   Overcast